• In Germany
  • List of Countries
  • For 7 days
  • Water Temperature
  • Satellite Maps
  • Weather Map
  • Weather Widgets
  • user-avatar
    Login

    Hourly Weather Innsbruck

    Today, 30 March, Thursday

    Time Temperature Precipitation Wind Pressure Humidity
    00:00 -1°C° 0 mm 1 mps 599 mmHg 95%
    01:00 -1°C° 0 mm 1 mps 599 mmHg 95%
    02:00 -2°C° 0 mm 1 mps 599 mmHg 95%
    03:00 -2°C° 0 mm 1 mps 599 mmHg 95%
    04:00 -3°C° 0 mm 1 mps 598 mmHg 94%
    05:00 -2°C° 0 mm 1 mps 599 mmHg 91%
    06:00 -1°C° 0 mm 1 mps 599 mmHg 88%
    07:00 -1°C° 0 mm 0 mps 600 mmHg 85%
    08:00 +2°C° 0 mm 0 mps 601 mmHg 78%
    09:00 +4°C° 0 mm 0 mps 602 mmHg 71%
    10:00 +7°C° 0 mm 0 mps 603 mmHg 64%
    11:00 +7°C° 0 mm 0 mps 603 mmHg 61%
    12:00 +9°C° 0 mm 1 mps 603 mmHg 59%
    13:00 +10°C° 0 mm 1 mps 603 mmHg 56%
    14:00 +10°C° 0 mm 1 mps 603 mmHg 58%
    15:00 +10°C° 0 mm 1 mps 603 mmHg 60%
    16:00 +9°C° 0 mm 1 mps 602 mmHg 62%
    17:00 +6°C° 0 mm 1 mps 601 mmHg 71%
    18:00 +3°C° 0 mm 1 mps 599 mmHg 81%
    19:00 0°C° 0 mm 1 mps 598 mmHg 90%
    20:00 +1°C° 0 mm 1 mps 598 mmHg 89%
    21:00 +1°C° 0 mm 1 mps 599 mmHg 89%
    22:00 -1°C° 0 mm 2 mps 599 mmHg 88%
    23:00 -1°C° 0 mm 2 mps 599 mmHg 89%

    Tomorrow, 31 March, Friday

    Time Temperature Precipitation Wind Pressure Humidity
    00:00 -2°C° 0 mm 2 mps 599 mmHg 89%
    01:00 -2°C° 0 mm 2 mps 598 mmHg 90%
    02:00 -2°C° 0 mm 2 mps 598 mmHg 91%
    03:00 -2°C° 0 mm 2 mps 598 mmHg 91%
    04:00 -2°C° 0 mm 2 mps 598 mmHg 92%
    05:00 -2°C° 0 mm 2 mps 598 mmHg 91%
    06:00 -1°C° 0 mm 2 mps 598 mmHg 91%
    07:00 -1°C° 0 mm 2 mps 598 mmHg 90%
    08:00 +2°C° 0 mm 2 mps 599 mmHg 81%
    09:00 +5°C° 0 mm 2 mps 599 mmHg 72%
    10:00 +8°C° 0 mm 1 mps 600 mmHg 63%
    11:00 +9°C° 0 mm 1 mps 600 mmHg 59%
    12:00 +10°C° 0 mm 1 mps 600 mmHg 55%
    13:00 +10°C° 0 mm 2 mps 600 mmHg 50%
    14:00 +10°C° 0 mm 2 mps 600 mmHg 53%
    15:00 +9°C° 0 mm 2 mps 599 mmHg 56%
    16:00 +9°C° 0 mm 2 mps 599 mmHg 58%
    17:00 +6°C° 0.1 mm 2 mps 597 mmHg 70%
    18:00 +5°C° 0.1 mm 1 mps 596 mmHg 81%
    19:00 +2°C° 0.1 mm 1 mps 595 mmHg 93%
    20:00 +2°C° 0 mm 1 mps 595 mmHg 93%
    21:00 +1°C° 0 mm 2 mps 595 mmHg 93%
    22:00 -1°C° 0 mm 2 mps 595 mmHg 94%
    23:00 -1°C° 0 mm 2 mps 595 mmHg 93%

    Day after tomorrow, 1 April, Saturday

    Time Temperature Precipitation Wind Pressure Humidity
    00:00 -1°C° 0 mm 2 mps 594 mmHg 93%
    01:00 -1°C° 0 mm 2 mps 594 mmHg 93%
    02:00 -2°C° 0 mm 2 mps 594 mmHg 93%
    03:00 -2°C° 0 mm 2 mps 593 mmHg 93%
    04:00 -2°C° 0 mm 2 mps 593 mmHg 93%
    05:00 -2°C° 0 mm 2 mps 593 mmHg 91%
    06:00 -2°C° 0 mm 2 mps 593 mmHg 89%
    07:00 -2°C° 0 mm 2 mps 593 mmHg 88%
    08:00 +2°C° 0 mm 2 mps 594 mmHg 78%
    09:00 +4°C° 0 mm 2 mps 595 mmHg 69%
    10:00 +6°C° 0 mm 2 mps 596 mmHg 60%
    11:00 +7°C° 0 mm 2 mps 596 mmHg 56%
    12:00 +8°C° 0 mm 2 mps 596 mmHg 53%
    13:00 +9°C° 0 mm 2 mps 596 mmHg 50%
    14:00 +8°C° 0.2 mm 2 mps 596 mmHg 54%
    15:00 +8°C° 0.2 mm 2 mps 596 mmHg 58%
    16:00 +7°C° 0.2 mm 2 mps 595 mmHg 62%
    17:00 +5°C° 0.5 mm 2 mps 594 mmHg 72%
    18:00 +4°C° 0.5 mm 1 mps 594 mmHg 82%
    19:00 +1°C° 0.5 mm 1 mps 593 mmHg 92%
    20:00 +1°C° 0.3 mm 1 mps 593 mmHg 92%
    21:00 +1°C° 0.3 mm 1 mps 594 mmHg 93%
    22:00 -2°C° 0.3 mm 2 mps 594 mmHg 94%
    23:00 0°C° 0 mm 1 mps 594 mmHg 94%

    2 April, Sunday

    Time Temperature Precipitation Wind Pressure Humidity
    00:00 0°C° 0 mm 1 mps 595 mmHg 94%
    01:00 0°C° 0 mm 1 mps 595 mmHg 94%
    02:00 0°C° 0 mm 1 mps 595 mmHg 94%
    03:00 -1°C° 0 mm 1 mps 595 mmHg 94%
    04:00 -1°C° 0 mm 1 mps 595 mmHg 94%
    05:00 0°C° 0 mm 1 mps 595 mmHg 91%
    06:00 -1°C° 0 mm 0 mps 596 mmHg 88%
    07:00 0°C° 0 mm 0 mps 596 mmHg 85%
    08:00 +2°C° 0 mm 0 mps 597 mmHg 77%
    09:00 +4°C° 0 mm 0 mps 598 mmHg 69%
    10:00 +7°C° 0 mm 1 mps 599 mmHg 61%
    11:00 +8°C° 0.1 mm 1 mps 600 mmHg 59%
    12:00 +8°C° 0.1 mm 1 mps 600 mmHg 56%
    13:00 +9°C° 0.1 mm 1 mps 600 mmHg 54%
    14:00 +9°C° 0.3 mm 1 mps 600 mmHg 57%
    15:00 +8°C° 0.3 mm 1 mps 600 mmHg 60%
    16:00 +8°C° 0.3 mm 1 mps 599 mmHg 63%
    17:00 +6°C° 0.2 mm 1 mps 599 mmHg 73%
    18:00 +4°C° 0.2 mm 1 mps 598 mmHg 82%
    19:00 +2°C° 0.2 mm 1 mps 597 mmHg 92%
    20:00 +1°C° 0.2 mm 0 mps 598 mmHg 93%
    21:00 0°C° 0.2 mm 0 mps 598 mmHg 95%
    22:00 0°C° 0.2 mm 0 mps 598 mmHg 96%
    23:00 0°C° 0.1 mm 0 mps 598 mmHg 96%

    3 April, Monday

    Time Temperature Precipitation Wind Pressure Humidity
    00:00 +1°C° 0.1 mm 0 mps 599 mmHg 97%
    01:00 +2°C° 0.1 mm 1 mps 599 mmHg 97%
    02:00 +2°C° 0.1 mm 1 mps 599 mmHg 97%
    03:00 +2°C° 0.1 mm 1 mps 599 mmHg 97%
    04:00 +2°C° 0.1 mm 1 mps 599 mmHg 97%
    05:00 +2°C° 0.1 mm 1 mps 599 mmHg 96%
    06:00 +2°C° 0.1 mm 1 mps 599 mmHg 95%
    07:00 +2°C° 0.1 mm 1 mps 600 mmHg 95%
    08:00 +3°C° 0.1 mm 1 mps 600 mmHg 90%
    09:00 +4°C° 0.1 mm 1 mps 600 mmHg 84%
    10:00 +5°C° 0.1 mm 1 mps 601 mmHg 79%
    11:00 +6°C° 0.1 mm 1 mps 601 mmHg 77%
    12:00 +6°C° 0.1 mm 1 mps 601 mmHg 75%
    13:00 +6°C° 0.1 mm 2 mps 601 mmHg 73%
    14:00 +6°C° 0.2 mm 2 mps 601 mmHg 75%
    15:00 +6°C° 0.2 mm 2 mps 601 mmHg 76%
    16:00 +6°C° 0.2 mm 2 mps 600 mmHg 78%
    17:00 +5°C° 0.1 mm 1 mps 600 mmHg 84%
    18:00 +4°C° 0.1 mm 1 mps 599 mmHg 90%
    19:00 +3°C° 0.1 mm 1 mps 599 mmHg 96%
    20:00 +2°C° 0 mm 1 mps 599 mmHg 96%
    21:00 +1°C° 0 mm 1 mps 599 mmHg 96%
    22:00 +1°C° 0 mm 1 mps 599 mmHg 96%
    23:00 +1°C° 0 mm 1 mps 599 mmHg 96%

    4 April, Tuesday

    Time Temperature Precipitation Wind Pressure Humidity
    00:00 0°C° 0 mm 1 mps 598 mmHg 96%
    01:00 0°C° 0 mm 1 mps 598 mmHg 96%
    02:00 0°C° 0 mm 1 mps 598 mmHg 96%
    03:00 0°C° 0 mm 1 mps 598 mmHg 96%
    04:00 -1°C° 0 mm 1 mps 597 mmHg 96%
    05:00 0°C° 0 mm 1 mps 598 mmHg 94%
    06:00 +1°C° 0 mm 1 mps 598 mmHg 93%
    07:00 +1°C° 0 mm 1 mps 599 mmHg 92%
    08:00 +2°C° 0.1 mm 1 mps 599 mmHg 86%
    09:00 +2°C° 0.1 mm 2 mps 599 mmHg 81%
    10:00 +3°C° 0.1 mm 2 mps 600 mmHg 75%
    11:00 +4°C° 0.1 mm 2 mps 600 mmHg 70%
    12:00 +5°C° 0.1 mm 2 mps 600 mmHg 65%
    13:00 +6°C° 0.1 mm 2 mps 600 mmHg 60%
    14:00 +5°C° 0.1 mm 2 mps 600 mmHg 63%
    15:00 +5°C° 0.1 mm 2 mps 599 mmHg 66%
    16:00 +5°C° 0.1 mm 2 mps 599 mmHg 69%
    17:00 +3°C° 0.2 mm 2 mps 599 mmHg 77%
    18:00 +2°C° 0.2 mm 2 mps 598 mmHg 84%
    19:00 +1°C° 0.2 mm 2 mps 598 mmHg 92%
    20:00 +1°C° 0.2 mm 1 mps 598 mmHg 93%
    21:00 +1°C° 0.2 mm 1 mps 598 mmHg 94%
    22:00 +1°C° 0.2 mm 1 mps 599 mmHg 95%
    23:00 0°C° 0.1 mm 1 mps 598 mmHg 95%
    Show more